Location: Unspecified
(0.0000°N, 0.0000°E)
Time: 21:16:38
(UTC+00:00)

Courier 1B Rocket - Visible Passes

Search period start: 24 January 2017 00:00
Search period end: 03 February 2017 00:00
Orbit: 920 x 1202 km, 28.2° (Epoch: 23 January)

Date Brightness Start Highest point End Pass type
(mag) Time Alt. Az. Time Alt. Az. Time Alt. Az.
24 Jan 7.0 21:05:09 10° SSW 21:07:04 18° SSW 21:07:04 18° SSW visible
25 Jan 6.5 20:04:59 10° SSW 20:09:25 20° SSE 20:09:47 20° SSE visible
26 Jan 6.9 19:05:17 10° S 19:08:09 13° SSE 19:11:00 10° SE visible
26 Jan 6.6 20:56:03 10° SW 20:58:56 27° SSW 20:58:56 27° SSW visible
27 Jan 5.9 19:55:31 10° SSW 20:01:01 31° SSE 20:01:44 30° SE visible
28 Jan 7.5 05:34:15 10° N 05:35:20 10° NNE 05:36:25 10° NNE visible
28 Jan 6.6 18:55:13 10° SSW 18:59:52 21° SSE 19:04:25 10° ESE visible
28 Jan 6.0 20:47:13 10° SW 20:50:57 38° SW 20:50:57 38° SW visible
29 Jan 5.2 19:46:23 10° SW 19:52:31 49° SSE 19:53:50 43° ESE visible
29 Jan 7.7 21:40:03 10° W 21:40:13 11° W 21:40:13 11° W visible
30 Jan 7.3 05:23:10 10° N 05:27:07 15° NNE 05:31:09 10° NE visible
30 Jan 6.0 18:45:44 10° SW 18:51:27 32° SSE 18:56:45 11° E visible
30 Jan 5.7 20:38:40 10° WSW 20:43:08 46° W 20:43:08 46° W visible
31 Jan 4.8 19:37:31 10° WSW 19:43:58 80° SSE 19:46:05 44° ENE visible
31 Jan 7.6 21:32:18 10° W 21:32:28 11° W 21:32:28 11° W visible
01 Feb 7.0 05:13:23 10° NNW 05:18:43 21° NNE 05:24:14 10° ENE visible
01 Feb 5.4 18:36:34 10° SW 18:42:58 52° SSE 18:49:03 10° ENE visible
01 Feb 5.9 20:30:28 10° W 20:35:27 38° NW 20:35:27 38° NW visible
02 Feb 7.2 04:15:09 13° N 04:17:15 14° NNE 04:20:56 10° NE visible
02 Feb 5.1 19:28:57 10° WSW 19:35:24 64° NNW 19:38:27 31° NE visible
